GFSSW_700_spd_057.txt.gz
Wind_Speed
5 5 5 4 4 2 2 2 2 3 5 6 5 3 4 12 20 20 18 14 9 6 4 3 2 4 8 14 5 9 4 4 4 15 17 8 15 14 14 14 9 7 17 14 7
7 6 6 5 4 3 3 3 2 2 4 6 5 4 3 4 10 19 21 18 13 11 8 5 3 4 10 8 10 7 10 7 11 8 16 14 15 10 10 16 14 14 12 10 9
10 9 8 7 6 5 4 6 5 4 5 5 6 4 3 1 2 4 15 19 17 14 11 8 5 7 2 9 6 12 9 6 13 9 12 2 7 2 10 12 14 14 13 12 10
12 11 10 9 8 7 6 7 7 6 6 6 6 4 1 4 2 4 4 7 14 17 13 9 7 7 3 7 15 24 11 4 2 3 10 8 14 18 9 4 9 11 11 12 10
15 14 13 12 10 9 8 8 7 7 8 7 7 5 4 7 6 9 5 6 7 12 12 11 10 5 9 8 12 16 16 12 9 5 15 7 3 12 16 4 6 6 7 8 9
18 17 16 14 13 12 10 10 9 8 9 9 8 8 7 9 5 12 12 7 7 10 11 10 9 5 17 20 14 13 7 10 9 11 5 3 5 15 6 5 4 8 4 4 5
21 20 19 17 15 14 12 12 11 10 10 10 9 10 11 6 9 13 7 6 10 12 14 3 13 15 19 19 14 14 16 7 6 13 16 12 8 14 5 14 11 7 11 5 3
22 22 22 20 19 17 14 13 12 12 11 11 11 12 11 11 14 10 10 7 2 5 14 13 9 16 18 12 13 19 13 11 11 11 3 10 7 16 2 17 16 14 15 14 11
23 23 23 22 22 20 17 16 15 13 13 11 12 12 6 11 10 9 11 8 1 12 10 16 12 13 17 13 19 10 11 7 9 17 21 15 14 10 14 17 11 20 21 21 16
24 24 22 22 22 21 20 17 16 14 14 13 12 9 3 4 6 5 4 4 10 7 11 10 13 14 17 14 18 6 12 17 21 11 18 15 24 13 18 11 5 23 25 23 17
23 23 22 21 21 19 17 15 16 15 19 16 8 10 3 5 13 15 11 12 13 13 12 13 14 17 16 16 19 14 10 19 11 14 15 16 16 24 19 14 15 26 23 15 21
21 22 21 20 19 18 15 13 18 16 22 18 21 15 11 8 16 11 8 12 12 13 10 11 19 15 12 16 20 13 5 9 22 25 14 17 17 17 23 5 11 17 26 9 17
21 20 19 19 18 18 16 15 13 13 21 24 20 26 19 16 21 12 11 13 15 15 11 19 16 17 17 19 25 22 22 7 20 11 18 24 14 3 24 9 12 19 17 12 12
22 21 18 17 16 14 11 14 12 12 13 29 24 24 18 17 23 12 19 16 16 17 18 17 16 16 17 20 19 21 15 12 17 19 24 13 5 5 5 9 7 18 19 16 14
22 21 20 18 16 16 18 17 8 7 4 9 16 15 13 24 6 10 16 20 18 19 13 19 18 15 14 17 10 12 19 14 15 22 18 16 7 6 9 10 8 20 16 22 15
19 20 21 20 17 18 15 11 12 7 8 7 13 19 12 19 23 11 17 18 16 15 19 20 17 15 17 16 15 13 16 16 13 17 10 10 18 13 15 17 15 19 12 14 20
16 17 19 19 20 21 20 15 10 8 11 11 12 11 15 18 22 19 21 18 20 15 20 18 19 15 12 11 11 15 11 10 4 10 5 6 15 8 11 11 11 18 10 11 13
13 15 17 17 20 20 19 20 10 7 21 13 9 16 18 16 20 19 20 18 20 19 21 20 18 17 20 18 18 20 21 15 6 3 3 15 14 5 8 7 15 7 8 11 18
10 12 14 16 19 19 21 24 16 16 11 17 19 20 15 19 18 25 25 25 20 23 24 18 26 21 25 24 20 19 17 22 23 24 10 14 9 12 14 13 7 6 9 13 15
8 8 10 15 17 22 25 25 20 23 12 17 11 13 18 15 13 24 28 23 28 26 22 21 27 23 21 23 18 20 17 15 19 3 5 1 5 11 10 14 18 8 18 14 13
4 4 6 5 11 21 28 29 24 20 13 11 14 16 12 10 14 20 23 21 22 23 22 28 19 26 18 20 21 17 19 20 15 9 6 3 8 20 19 20 25 23 19 18 13
13 7 6 8 11 19 25 24 19 15 12 14 19 12 12 12 19 17 17 24 24 27 23 24 23 24 25 14 18 21 18 17 17 17 4 3 11 6 11 17 8 12 31 7 10
13 6 5 11 11 13 9 16 14 13 14 11 6 20 12 13 14 11 9 8 4 11 18 15 11 17 21 22 13 21 21 24 18 23 25 11 11 14 18 23 31 11 11 16 11
13 9 8 11 14 16 12 9 14 13 17 10 12 8 16 14 13 12 11 4 8 9 4 6 10 6 20 19 7 17 21 17 19 14 19 27 14 20 11 13 9 29 26 21 19
15 12 5 7 8 18 8 7 9 14 12 10 17 12 10 9 13 14 9 10 12 11 9 13 13 14 14 20 19 19 16 21 20 22 23 17 16 22 23 20 17 20 13 10 16
15 9 8 5 5 13 9 11 7 6 11 11 13 14 14 12 12 14 9 13 9 11 5 9 15 14 20 22 18 19 19 17 19 20 17 13 19 21 23 18 15 10 19 17 13
22 10 7 5 1 8 11 11 19 11 9 9 7 7 13 14 20 20 21 15 11 10 4 7 12 14 16 19 19 23 20 23 22 20 20 29 26 27 22 17 13 10 16 8 8

GFSSW_700_spd_060.txt.gz
Wind_Speed
5 5 4 4 3 3 3 2 1 1 3 3 3 3 3 9 19 20 16 12 8 4 2 3 3 11 10 6 7 6 5 3 4 8 20 7 11 6 8 15 12 10 12 15 11
8 7 7 6 5 5 4 3 2 2 3 4 4 3 3 3 10 19 19 16 12 9 5 4 4 2 2 4 6 2 5 10 11 9 12 15 5 5 8 7 12 14 16 14 13
10 9 8 7 7 6 4 4 4 4 4 5 5 4 2 1 3 9 18 18 17 13 8 7 5 3 4 2 9 12 15 8 5 8 13 11 12 3 3 7 8 12 17 15 15
12 11 11 9 8 7 6 6 5 5 4 6 6 5 3 2 4 7 6 13 19 16 12 9 7 4 8 4 8 12 8 8 6 15 15 15 4 2 3 4 4 5 9 12 13
14 14 13 12 10 9 8 7 7 7 6 6 7 6 5 5 5 3 2 2 8 14 12 11 8 6 7 5 9 10 4 6 10 12 21 18 12 7 2 6 4 2 4 7 9
17 17 16 14 12 11 9 9 8 8 8 8 8 7 7 8 9 7 2 4 5 10 12 11 7 4 11 11 16 14 19 22 25 20 23 17 7 10 6 7 4 5 1 3 5
20 20 18 17 15 14 11 11 10 10 10 9 9 10 10 3 12 11 2 5 7 11 13 13 8 4 13 14 9 12 17 16 11 24 28 18 8 9 8 15 6 6 5 2 0
22 21 21 20 19 17 15 12 12 12 12 11 11 11 8 11 15 11 6 8 9 10 13 15 7 8 14 16 13 13 6 12 9 15 8 10 7 13 14 17 14 10 11 6 9
22 22 22 22 22 20 18 16 15 15 13 12 12 13 7 9 10 5 7 3 8 4 1 5 10 15 14 15 11 3 1 4 9 8 2 8 6 9 15 19 15 13 12 7 16
23 22 22 21 22 20 20 19 18 17 16 15 14 12 7 5 3 4 3 7 8 6 7 8 9 20 17 13 11 8 10 8 10 21 14 13 13 15 15 20 17 19 18 17 9
22 22 21 21 20 19 17 18 19 20 21 19 15 14 10 7 6 5 7 9 12 12 13 12 16 19 10 19 15 8 14 13 18 7 9 12 14 19 22 26 17 26 16 10 6
21 20 21 20 19 18 15 17 16 20 23 22 19 20 13 11 13 9 10 17 15 13 15 16 20 12 8 10 14 13 14 17 16 3 17 20 25 25 27 31 24 19 20 16 10
22 21 19 19 18 16 13 14 13 17 21 21 21 21 17 14 16 9 14 8 13 11 9 14 12 9 13 14 17 21 20 23 11 4 9 16 24 24 13 26 30 20 18 23 10
23 21 20 17 17 16 17 17 17 18 12 23 23 24 22 21 24 17 18 17 18 16 15 19 12 14 15 17 20 29 22 23 22 19 23 16 17 11 16 31 31 15 21 24 17
23 22 22 19 16 16 19 19 16 11 2 9 9 12 18 24 18 8 19 20 20 18 16 19 16 17 19 19 15 13 13 17 20 18 17 23 12 10 21 34 28 17 20 22 20
21 22 23 20 18 21 18 15 13 9 8 7 8 12 12 14 17 14 8 16 20 23 20 23 19 19 17 12 14 11 15 20 17 20 6 7 7 6 18 21 18 17 20 21 23
18 20 22 21 20 23 20 18 13 8 12 8 8 14 9 11 15 17 17 16 23 18 23 20 24 21 16 15 11 11 13 9 6 7 6 11 6 11 4 11 17 18 16 14 21
16 17 19 18 24 24 24 21 14 9 19 9 3 9 11 19 18 18 17 19 22 24 21 17 15 21 11 13 13 15 16 12 5 3 9 9 10 4 9 9 14 14 14 18 24
13 14 15 20 23 24 27 27 20 11 9 16 13 12 12 12 27 18 21 21 24 22 20 14 24 18 18 15 19 24 23 17 23 5 3 10 12 6 12 17 12 10 16 15 15
11 10 11 16 22 25 29 30 22 23 13 3 6 4 9 10 3 1 23 23 27 26 19 23 21 18 19 18 20 28 20 13 9 3 4 4 9 9 14 14 14 17 24 25 23
7 7 8 10 19 24 31 31 28 24 22 11 11 15 14 7 8 5 2 11 29 27 30 26 28 26 20 16 13 26 20 19 16 10 6 3 4 6 14 19 18 14 23 23 41
8 8 8 6 9 11 23 24 21 23 19 10 11 20 13 9 8 2 2 12 16 21 31 27 28 31 30 24 15 10 22 19 19 14 3 3 5 8 14 22 28 21 13 15 23
13 10 7 4 6 9 12 14 18 19 19 7 11 15 17 15 6 3 4 5 12 5 5 26 15 20 26 23 18 13 10 13 17 19 16 6 7 14 21 21 24 24 22 23 5
16 9 9 11 11 9 10 7 6 14 13 13 13 12 7 11 10 7 5 6 12 7 1 5 8 17 13 6 4 10 12 7 9 13 13 18 10 16 21 21 21 24 8 7 4
17 13 11 9 10 10 14 6 2 6 8 12 16 14 8 5 10 14 14 14 5 4 4 2 3 3 8 7 7 6 7 11 17 21 21 12 9 14 15 17 16 8 17 14 16
19 14 8 3 2 5 14 9 5 8 2 9 5 14 21 12 11 10 15 5 5 4 3 4 3 7 13 15 16 15 13 11 18 20 20 15 10 13 17 21 16 10 11 20 22
19 14 9 4 7 5 9 12 10 6 3 2 12 9 12 17 14 14 18 11 8 10 6 1 5 7 9 13 17 18 18 16 17 19 24 17 21 16 20 21 16 8 15 21 19

GFSSW_700_spd_063.txt.gz
Wind_Speed
5 4 4 3 3 4 3 4 3 1 1 3 3 4 3 7 19 21 17 12 8 4 1 4 4 3 7 8 8 10 5 9 10 14 11 3 3 11 12 10 15 17 15 16 17
8 7 6 5 5 4 4 5 4 3 1 2 3 4 3 3 10 20 19 16 12 9 5 1 2 3 2 3 6 5 7 4 9 11 8 11 2 3 8 11 11 16 17 18 17
10 9 9 8 7 7 7 6 6 5 3 3 4 3 3 1 4 14 20 19 17 13 9 4 5 4 6 3 6 9 4 5 6 9 15 7 3 6 4 8 9 10 11 13 14
13 12 11 10 10 10 9 8 7 7 5 3 4 4 4 2 4 7 16 18 19 18 14 9 7 6 6 6 5 17 13 13 8 13 22 19 11 10 7 2 4 5 6 9 14
16 15 14 13 12 11 10 9 9 8 7 5 3 6 5 4 10 7 8 15 19 19 16 12 9 8 9 8 11 10 12 7 17 10 15 19 19 12 7 8 4 1 3 5 11
19 18 17 15 14 13 12 10 10 9 8 7 4 6 7 5 10 10 8 11 15 16 16 13 11 10 11 8 10 14 17 21 19 17 17 19 15 19 10 12 7 2 1 1 6
21 20 20 18 17 15 13 12 11 10 10 9 6 7 8 5 12 11 5 10 12 13 14 15 13 10 10 10 12 11 22 14 6 9 12 13 20 19 9 13 8 7 5 1 3
22 22 22 21 20 18 16 15 14 12 11 10 9 7 7 11 14 7 6 9 10 9 13 14 12 9 10 15 12 12 0 2 9 5 9 20 17 12 14 8 10 9 9 5 3
23 23 23 23 22 20 18 18 17 15 14 12 11 10 8 9 5 6 7 9 11 12 14 16 12 11 13 13 12 8 6 3 8 9 8 25 20 18 17 12 15 14 10 6 1
22 23 23 23 23 21 19 19 19 19 18 16 14 12 9 10 10 11 9 14 17 11 10 11 12 16 18 14 10 9 10 11 4 9 13 17 13 7 12 15 16 21 16 14 14
21 21 22 22 22 20 18 18 19 22 22 20 16 14 11 12 12 10 9 11 17 16 15 12 18 21 17 14 10 13 10 14 8 13 9 13 11 16 12 17 20 23 19 10 8
23 21 20 21 20 18 16 19 20 23 22 21 20 21 17 16 19 11 12 12 14 17 15 16 23 17 11 12 13 14 16 16 18 21 13 9 13 14 15 20 25 24 20 18 14
24 23 20 19 18 17 16 19 19 20 22 22 20 21 21 21 20 14 15 11 15 18 14 19 14 12 13 13 15 14 18 18 23 21 17 14 17 18 17 18 17 25 26 22 19
23 23 21 19 18 16 20 19 18 17 15 23 23 21 20 22 25 18 18 17 15 14 10 13 15 13 12 15 13 18 17 20 25 26 25 22 14 25 21 12 19 23 32 20 22
23 22 22 20 18 18 20 18 16 11 4 8 13 17 21 26 20 19 18 22 21 17 17 20 10 10 16 14 14 15 16 13 16 24 25 23 9 18 12 14 16 21 33 21 25
22 21 21 21 19 21 18 16 13 8 8 6 7 10 17 22 29 18 13 22 20 18 20 21 17 18 15 13 14 15 13 11 13 21 7 18 10 14 11 14 15 20 28 22 23
21 20 19 20 21 23 19 17 11 9 8 4 4 5 16 14 20 24 19 16 16 20 25 21 20 20 20 18 16 13 12 4 1 2 8 5 8 12 14 10 11 18 18 20 23
19 18 18 17 24 24 23 22 13 6 19 6 6 4 9 15 15 16 21 23 19 18 20 18 19 25 17 13 10 11 9 8 5 3 6 7 4 13 11 11 9 11 16 20 25
16 15 15 21 24 24 27 27 19 8 9 19 17 7 5 8 15 15 20 22 24 21 25 18 27 20 15 16 10 12 15 18 10 5 4 10 14 14 9 13 13 10 13 18 21
13 13 15 19 20 22 28 31 25 20 11 5 2 1 3 4 2 6 12 9 23 26 27 27 24 14 8 10 15 13 24 15 13 4 4 6 7 9 14 17 19 19 19 22 24
10 9 10 14 17 22 31 31 28 25 25 13 9 10 4 5 1 4 7 3 14 21 25 30 28 23 15 10 7 13 17 19 13 6 7 1 4 5 11 19 24 25 22 20 25
7 8 9 9 9 19 26 25 23 24 29 28 13 11 9 9 3 3 3 2 4 11 23 29 32 31 26 20 18 17 9 13 17 9 7 6 7 8 11 13 18 18 18 19 19
10 10 12 11 7 7 8 13 19 25 23 21 18 10 12 10 6 6 2 1 2 2 5 19 25 27 31 26 15 10 9 7 11 12 9 5 3 6 16 21 20 15 12 18 20
15 8 11 9 8 7 6 11 11 7 14 20 14 7 13 8 13 8 8 2 1 3 4 4 11 15 25 19 9 11 3 1 4 2 3 7 12 8 6 16 16 24 18 16 18
16 12 14 7 5 8 8 8 5 1 9 14 12 14 13 10 13 15 19 11 4 2 1 4 5 6 7 7 5 7 10 3 5 7 5 11 10 8 8 7 9 17 15 17 22
17 15 16 5 4 5 11 13 5 4 5 15 13 15 14 17 10 10 14 11 7 6 2 3 3 4 2 2 5 10 7 8 9 11 12 12 11 10 8 14 19 17 18 20 20
17 20 12 9 3 5 5 16 8 3 3 8 15 10 10 11 14 16 14 10 11 9 4 5 3 7 6 6 9 8 3 5 10 11 11 11 13 15 14 17 15 18 18 18 18

GFSSW_700_spd_069.txt.gz
Wind_Speed
5 5 5 5 5 4 3 3 3 5 5 3 2 3 5 11 20 21 17 13 7 2 2 3 3 5 7 8 8 6 2 1 7 5 5 7 10 11 12 13 14 15 14 12 10
8 7 7 7 7 7 6 5 6 6 5 4 1 3 3 6 9 20 23 17 12 7 4 3 3 4 3 4 6 9 8 8 10 9 7 6 8 7 7 8 11 12 13 12 11
11 11 10 9 9 9 8 8 7 7 6 5 3 1 3 3 5 13 24 20 16 12 8 7 6 4 4 2 2 7 9 7 6 8 10 10 12 9 8 4 5 8 9 9 10
15 14 14 12 11 11 10 10 10 9 8 6 5 2 1 3 2 6 19 23 20 16 13 11 10 7 5 3 1 5 7 8 8 10 13 13 15 16 15 8 3 2 4 5 8
20 18 17 16 14 13 12 12 12 11 9 8 7 4 2 3 4 6 12 20 22 20 17 15 13 11 9 5 6 6 7 9 8 11 15 13 15 17 14 15 10 5 2 1 5
23 23 21 19 18 17 15 15 14 12 11 11 9 6 3 5 7 8 10 15 17 21 21 18 17 15 12 10 7 8 10 11 10 12 15 13 13 16 8 13 13 13 7 4 2
25 25 25 24 22 19 18 18 16 14 14 13 12 9 6 7 7 12 12 11 12 17 21 21 21 16 16 14 12 9 9 9 7 8 5 6 12 10 8 10 15 12 13 10 6
25 26 26 26 26 23 22 21 19 17 16 15 14 13 8 7 6 7 15 13 12 16 18 21 22 20 17 16 14 11 9 8 5 5 7 5 10 10 9 9 11 14 16 12 8
24 25 25 26 27 26 24 24 22 21 19 17 15 14 12 8 9 8 15 16 14 16 16 19 20 21 20 19 15 9 8 9 7 5 5 9 14 16 14 15 13 14 14 15 12
24 25 25 25 26 26 25 25 24 23 22 21 19 15 12 13 10 9 13 17 18 19 19 19 19 20 20 19 17 10 7 10 9 4 7 11 14 16 19 18 15 16 14 16 14
23 23 24 24 24 25 25 25 25 25 24 24 21 19 12 16 14 13 11 16 21 21 22 18 18 18 18 19 19 19 15 16 12 10 15 13 16 16 22 18 18 23 21 21 14
21 21 21 23 23 22 23 23 24 24 26 25 25 24 19 19 19 17 14 16 20 25 24 22 24 18 14 18 19 18 18 20 19 11 7 8 17 16 12 15 13 16 18 18 15
19 20 19 20 21 21 20 21 21 21 23 28 27 26 26 27 24 21 21 19 20 22 26 24 19 11 19 20 17 15 19 21 23 18 17 16 17 12 12 10 15 14 14 12 15
18 18 18 18 18 19 19 19 17 16 12 25 26 29 29 29 32 28 27 24 24 23 25 24 26 23 16 16 17 15 15 18 19 14 9 9 9 11 9 8 8 7 10 12 13
20 18 17 16 17 17 18 16 12 9 4 9 17 24 28 31 29 27 31 29 27 24 22 20 14 19 23 18 13 13 10 11 17 17 13 12 7 11 13 7 8 11 13 15 15
19 19 16 16 14 19 16 12 11 7 10 7 9 8 17 25 30 26 26 33 32 27 23 19 16 14 14 15 11 12 13 13 10 10 11 8 7 16 11 9 9 13 15 18 14
18 16 15 14 15 18 17 15 10 10 10 7 11 9 11 16 22 25 26 29 32 23 27 26 26 23 17 16 15 13 13 5 7 6 9 8 6 19 13 12 10 16 16 17 12
18 14 14 14 16 17 20 23 14 12 23 10 10 7 5 10 15 16 26 27 31 28 19 22 14 23 20 21 15 15 11 8 9 7 10 8 6 11 14 13 15 18 15 11 7
16 15 14 14 15 17 24 30 16 17 8 24 18 11 5 7 10 15 25 27 30 28 21 14 13 10 7 17 17 13 12 11 4 1 3 7 12 14 14 18 16 18 15 9 10
14 14 13 11 15 19 26 31 22 16 11 5 10 7 7 5 7 13 18 23 23 23 25 18 12 10 11 10 21 19 13 6 7 4 6 6 8 12 14 15 15 12 10 12 11
11 10 9 10 14 20 29 28 28 21 17 10 7 5 4 3 2 5 12 9 19 27 28 24 19 11 8 9 13 17 17 11 6 5 6 8 6 10 14 11 10 3 6 13 13
9 8 7 9 17 22 26 28 26 19 25 22 19 14 5 4 2 1 6 9 9 14 18 25 18 21 20 19 20 14 11 12 7 6 8 5 8 9 11 14 10 9 8 16 17
7 7 6 9 11 13 18 19 21 22 24 25 27 20 18 11 4 4 8 5 3 5 14 20 20 16 13 12 17 17 15 15 14 14 12 7 4 5 4 7 7 8 11 10 12
8 6 9 11 8 6 6 11 14 16 21 25 32 25 15 14 13 5 9 5 1 3 5 10 16 17 20 18 13 16 15 16 15 9 10 11 8 6 10 13 11 11 13 14 14
9 9 11 9 13 9 11 11 11 14 13 12 23 28 21 17 16 15 13 8 4 4 5 7 7 12 15 14 17 16 14 18 14 10 7 9 8 5 7 9 13 14 15 17 16
11 10 12 11 9 8 8 10 11 11 10 10 17 17 22 21 12 10 13 12 10 8 7 4 4 5 6 7 12 17 16 13 13 15 12 10 7 2 4 8 6 7 12 12 12
11 14 13 14 9 7 6 3 3 6 2 5 10 10 24 17 14 13 10 8 7 6 9 7 3 4 5 9 8 6 8 14 15 14 12 8 4 5 5 10 10 9 12 10 13

GFSSW_700_spd_072.txt.gz
Wind_Speed
5 5 5 5 6 5 6 7 7 6 6 6 3 4 7 9 18 22 18 14 8 4 1 3 4 5 6 8 6 5 3 4 6 5 5 2 4 9 11 11 13 12 10 5 7
9 8 7 7 8 8 7 7 6 7 7 8 5 3 4 7 7 18 23 20 13 9 6 2 2 5 6 5 4 4 2 5 4 3 3 4 2 5 5 8 9 10 10 8 9
12 12 11 10 10 10 10 10 10 9 9 9 6 3 2 4 5 11 22 23 18 14 11 6 3 2 3 6 4 4 3 7 6 6 5 5 6 5 3 3 0 6 7 7 7
18 15 15 14 13 13 13 13 12 12 11 10 8 5 2 3 2 6 14 25 22 18 14 11 7 5 4 5 6 6 6 8 7 8 6 6 5 7 6 3 4 2 4 5 6
23 22 20 18 16 16 15 15 15 14 13 12 10 8 4 5 7 6 8 20 23 20 16 14 11 8 7 7 9 10 9 7 11 13 12 11 10 8 9 9 8 8 5 2 2
25 26 25 23 21 19 19 18 17 16 15 14 12 11 7 6 8 6 6 13 18 21 20 17 15 13 12 11 10 11 12 12 13 14 17 11 9 10 4 7 9 8 9 6 4
26 27 28 28 26 24 21 21 19 18 17 16 14 13 11 9 9 8 9 10 13 15 18 21 18 17 11 11 13 13 15 12 11 12 8 4 9 4 4 8 9 10 9 11 9
26 27 28 29 29 27 26 24 22 20 19 18 16 15 15 12 9 9 14 13 12 13 17 21 23 21 20 15 14 12 13 14 7 9 7 3 7 2 8 11 7 9 13 11 11
29 28 27 29 29 29 29 27 25 23 21 20 18 16 17 16 12 11 13 18 17 15 19 20 23 16 15 18 18 17 18 13 11 9 6 7 11 12 11 14 13 12 10 12 13
29 30 29 28 28 28 28 28 27 26 24 22 22 18 18 19 17 13 11 18 20 19 19 20 19 18 19 20 23 19 16 15 14 8 7 12 16 13 16 16 14 15 16 12 14
26 28 29 28 27 27 26 26 25 26 28 25 19 23 14 21 20 18 14 17 21 20 19 15 18 21 20 20 22 18 16 20 19 14 12 18 17 14 14 16 14 16 20 19 13
23 24 26 27 26 25 25 23 23 26 28 30 28 27 22 24 23 22 19 18 20 21 17 21 24 19 17 16 18 21 22 26 21 18 14 16 16 17 13 13 14 16 18 13 16
23 22 23 24 25 23 23 22 20 21 25 30 31 30 27 28 25 23 24 21 18 20 22 24 20 18 19 17 19 22 23 22 23 17 16 18 21 17 12 10 12 14 16 19 12
23 22 21 21 22 22 21 19 16 15 12 21 27 32 34 29 33 28 26 24 19 20 21 22 20 19 17 18 19 22 19 18 22 22 25 15 20 12 10 9 6 5 7 9 11
19 20 20 19 19 20 19 15 11 9 6 10 19 30 32 34 22 29 32 27 26 20 19 20 18 21 24 25 17 19 14 13 14 19 23 22 17 20 12 12 9 10 11 13 15
19 17 18 19 17 20 18 11 11 8 13 8 10 16 26 32 34 23 29 32 28 26 23 21 16 16 17 19 20 13 13 13 13 18 23 26 19 22 16 8 9 10 12 17 11
18 15 16 16 17 18 16 14 10 16 11 8 9 10 12 18 24 24 24 28 31 29 29 22 23 17 15 14 16 16 14 16 13 14 17 12 13 21 16 13 15 13 14 17 12
17 14 15 14 17 16 17 20 16 11 22 4 5 9 11 11 17 24 27 29 29 31 25 28 25 23 20 24 21 20 19 19 13 12 16 11 13 19 11 14 12 15 14 14 10
14 15 15 13 14 16 21 26 18 18 6 13 11 11 11 10 11 16 27 29 30 32 30 20 24 13 17 22 23 20 18 19 17 15 13 14 9 13 15 13 16 16 17 15 8
12 13 13 11 13 18 24 28 18 13 8 4 10 7 9 8 9 13 18 21 28 27 29 22 16 16 14 14 21 23 15 16 19 16 10 13 11 16 13 9 8 8 9 5 5
10 9 9 9 14 20 21 22 23 14 12 7 6 7 8 4 5 9 12 8 19 19 27 24 18 15 13 18 18 21 24 20 16 9 11 9 11 4 5 8 8 7 3 4 5
8 4 8 8 12 14 18 18 18 15 17 14 12 9 8 8 6 6 10 8 12 19 23 25 20 24 17 15 15 16 19 27 23 18 21 18 19 5 8 12 12 10 9 7 6
8 8 8 8 6 10 13 15 15 15 16 16 20 14 11 7 5 5 5 7 9 11 14 20 24 23 24 17 18 19 18 18 17 18 16 13 13 10 11 11 12 13 10 8 6
5 2 6 9 8 7 6 8 13 12 17 20 22 19 17 15 10 6 5 4 4 4 12 17 15 23 26 26 22 26 23 20 19 19 21 19 9 5 13 12 13 15 15 11 7
7 7 9 3 8 9 8 8 10 12 11 11 17 23 20 21 15 15 10 7 4 2 3 10 10 16 20 14 12 17 22 20 22 22 15 16 10 8 7 8 11 13 13 11 8
9 11 13 10 7 11 9 8 11 10 14 10 15 14 19 23 18 13 14 11 7 5 3 2 4 5 9 11 15 17 17 18 16 14 13 8 9 5 5 5 6 5 7 7 8
10 12 11 8 6 6 7 8 6 7 5 10 12 13 16 20 18 12 9 11 10 8 6 6 3 5 10 7 11 13 10 14 14 13 13 13 11 7 3 3 4 7 10 11 10